Mobile, AL

1:04 AM CST on February 13, 2016 (GMT -0600)
Mobile Downtown

Weather History for KBFM - March, 2012

Change the Weather History Date:

Wednesday, March 14, 2012

  Actual Average Record
Temperature  
Mean Temperature 70 °F -  
Max Temperature 79 °F 66 °F 81 °F (2008)
Min Temperature 62 °F 49 °F 37 °F (2014)
Cooling Degree Days 5    
Growing Degree Days 20 (Base 50)    
Moisture  
Dew Point 64 °F    
Average Humidity 90    
Maximum Humidity 100    
Minimum Humidity 58    
Precipitation  
Precipitation 0.01 in - - ()
Sea Level Pressure  
Sea Level Pressure 30.24 in    
Wind  
Wind Speed 2 mph (SE)    
Max Wind Speed 10 mph    
Max Gust Speed -    
Visibility 4 miles    
Events Fog    
Averages and records for this station are not official NWS values.
T = Trace of Precipitation, MM = Missing Value Source: NWS Daily Summary

Daily Weather History Graph

Daily Weather History Graph

Search for Another Location

Airport or City:

Trip Planner

Search our weather history database for the weather conditions in past years. The results will help you decide how hot, cold, wet, or windy it might be!

Date:

Astronomy

Mar. 14, 2012 Rise Set
Actual Time 7:02 AM CDT 7:00 PM CDT
Civil Twilight 6:38 AM CDT 7:24 PM CDT
Nautical Twilight 6:10 AM CDT 7:52 PM CDT
Astronomical Twilight 5:42 AM CDT 8:20 PM CDT
Moon 1:08 AM CDT (3/14) 11:40 AM CDT (3/14)
Length of Visible Light 12h 45m
Length of Day
11h 57m
Waning Gibbous, 54% of the Moon is Illuminated
Mar 14
Waning Gibbous
Mar 14
Last Quarter
Mar 22
New
Mar 30
First Quarter
Apr 6
Full

Hourly Weather History & Observations

Time (CDT) Temp. Dew Point Humidity Pressure Visibility Wind Dir Wind Speed Gust Speed Precip Events Conditions
12:31 AM 66.2 °F 64.4 °F 94% 30.22 in 2.5 mi Calm Calm - N/A   Mostly Cloudy
12:35 AM 66.2 °F 64.4 °F 94% 30.22 in 1.5 mi Calm Calm - N/A   Mostly Cloudy
12:41 AM 66.2 °F 64.4 °F 94% 30.22 in 0.8 mi Calm Calm - N/A   Mist
12:53 AM 66.0 °F 64.9 °F 96% 30.22 in 0.5 mi Calm Calm - N/A Fog Fog
1:53 AM 66.9 °F 64.9 °F 93% 30.21 in 0.5 mi Calm Calm - N/A Fog Fog
2:53 AM 66.2 °F 66.2 °F 100% 30.20 in 0.2 mi Calm Calm - N/A Fog Fog
3:21 AM 66.2 °F 64.4 °F 94% 30.19 in 0.2 mi Calm Calm - N/A Fog Fog
3:53 AM 66.2 °F 64.4 °F 94% 30.19 in 0.2 mi Calm Calm - N/A Fog Fog
4:53 AM 66.0 °F 64.9 °F 96% 30.20 in 0.2 mi Calm Calm - N/A Fog Fog
5:40 AM 64.4 °F 64.4 °F 100% 30.22 in 0.2 mi Calm Calm - N/A Fog Fog
5:53 AM 64.9 °F 64.0 °F 97% 30.22 in 0.5 mi Calm Calm - N/A Fog Fog
6:01 AM 64.4 °F 64.4 °F 100% 30.22 in 0.2 mi Calm Calm - N/A Fog Fog
6:53 AM 64.9 °F 64.0 °F 97% 30.25 in 0.2 mi Calm Calm - N/A Fog Fog
7:53 AM 64.9 °F 64.9 °F 100% 30.26 in 0.2 mi Calm Calm - N/A Fog Fog
8:53 AM 66.0 °F 64.9 °F 96% 30.28 in 0.2 mi NE 5.8 mph - N/A Fog Fog
9:53 AM 66.9 °F 66.0 °F 97% 30.30 in 0.5 mi NNE 4.6 mph - N/A Fog Fog
10:15 AM 66.2 °F 66.2 °F 100% 30.30 in 1.0 mi NE 4.6 mph - N/A   Overcast
10:32 AM 68.0 °F 66.2 °F 94% 30.30 in 3.0 mi NNE 5.8 mph - N/A   Overcast
10:53 AM 69.1 °F 66.0 °F 90% 30.30 in 3.0 mi NE 4.6 mph - N/A   Overcast
11:28 AM 69.8 °F 66.2 °F 88% 30.30 in 6.0 mi ENE 5.8 mph - N/A   Overcast
11:53 AM 71.1 °F 66.0 °F 84% 30.30 in 10.0 mi East 4.6 mph - N/A   Mostly Cloudy
12:08 PM 71.6 °F 66.2 °F 83% 30.29 in 10.0 mi ENE 3.5 mph - N/A   Scattered Clouds
12:53 PM 73.9 °F 64.9 °F 73% 30.27 in 10.0 mi SE 5.8 mph - N/A   Scattered Clouds
1:53 PM 78.1 °F 63.0 °F 60% 30.25 in 10.0 mi East 4.6 mph - N/A   Scattered Clouds
2:53 PM 78.1 °F 62.1 °F 58% 30.22 in 10.0 mi SE 5.8 mph - N/A   Scattered Clouds
3:53 PM 78.1 °F 66.9 °F 68% 30.22 in 10.0 mi SSE 10.4 mph - N/A   Scattered Clouds
4:53 PM 75.9 °F 64.9 °F 69% 30.20 in 10.0 mi South 5.8 mph - N/A Fog Patches of Fog
5:53 PM 73.9 °F 64.9 °F 73% 30.20 in 10.0 mi South 9.2 mph - N/A   Scattered Clouds
6:53 PM 68.0 °F 64.9 °F 90% 30.22 in 4.0 mi South 10.4 mph - N/A Fog Patches of Fog
6:55 PM 66.2 °F 64.4 °F 94% 30.22 in 2.5 mi South 10.4 mph - N/A Fog Patches of Fog
7:02 PM 66.2 °F 64.4 °F 94% 30.22 in 10.0 mi South 6.9 mph - N/A Fog Patches of Fog
7:19 PM 66.2 °F 64.4 °F 94% 30.22 in 2.5 mi South 8.1 mph - N/A Fog Patches of Fog
7:37 PM 66.2 °F 64.4 °F 94% 30.23 in 5.0 mi South 5.8 mph - N/A Fog Patches of Fog
7:53 PM 66.9 °F 64.9 °F 93% 30.23 in 6.0 mi South 4.6 mph - N/A Fog Patches of Fog
8:53 PM 66.0 °F 64.0 °F 93% 30.25 in 10.0 mi SW 3.5 mph - N/A   Clear
9:53 PM 66.0 °F 64.0 °F 93% 30.26 in 10.0 mi Calm Calm - N/A   Clear
10:29 PM 62.6 °F 62.6 °F 100% 30.26 in 1.5 mi Calm Calm - N/A   Clear
10:53 PM 62.6 °F 60.8 °F 94% 30.26 in 3.0 mi Calm Calm - N/A   Clear
10:59 PM 62.6 °F 60.8 °F 94% 30.26 in 1.5 mi Calm Calm - N/A   Clear
11:03 PM 62.6 °F 60.8 °F 94% 30.26 in 0.8 mi Calm Calm - N/A   Mist
11:19 PM 62.6 °F 60.8 °F 94% 30.25 in 2.5 mi Calm Calm - N/A   Clear
11:26 PM 62.6 °F 60.8 °F 94% 30.26 in 6.0 mi Calm Calm - N/A   Clear
11:53 PM 62.1 °F 60.1 °F 93% 30.25 in 7.0 mi Calm Calm - N/A   Clear